Location: Charbonni�res
(45.9952°N, 2.9982°E)
Time: 16:43:43
(UTC+00:00)

NOSS 3-4 (A) - Pass Details

Date: 29 November 2020
Orbit: 879 x 1333 km, 63.4° (Epoch: 31 December)

Event Time Altitude Azimuth Distance (km) Brightness Sun altitude
Exits shadow 05:48:22 17° 273° (W) 2,122 4.7 -13.3°
Maximum altitude 05:52:11 33° 327° (NNW) 1,539 4.2 -12.7°
Drops below altitude 10° 05:57:56 10° 30° (NNE) 2,785 6.0 -11.8°
Sets 06:00:58 0° 40° (NE) 3,811 6.9 -11.3°
